Regional Weather Roundup
Issued by NWS

Home | Current Version | Previous Version | Text Only | Print | Product List | Glossary Off
Versions: 1 2 3 4 5 6 7 8 9 10 11 12 13 14 15 16 17 18 19 20 21 22 23 24 25 26 27 28 29 30 31 32 33 34 35 36 37 38 39 40 41 42 43 44 45 46 47 48 49 50

928
ASUS43 KMKX 200200
RWRWI

WISCONSIN REGIONAL WEATHER ROUNDUP
NATIONAL WEATHER SERVICE MILWAUKEE/SULLIVAN WI
900 PM CDT SAT AUG 19 2017

NOTE: "FAIR" INDICATES FEW OR NO CLOUDS BELOW 12,000 FEET WITH NO
SIGNIFICANT WEATHER AND/OR OBSTRUCTIONS TO VISIBILITY.

WIZ001-002-006>008-014>016-023>028-200300-
NORTHWEST WISCONSIN

CITY           SKY/WX    TMP DP  RH WIND       PRES   REMARKS
SUPERIOR ARPT    N/A     67  63  85 S6        29.85R
ASHLAND        CLEAR     66  62  87 SW8       29.88R
HAYWARD        CLEAR     64  60  87 CALM      29.91R
SIREN          CLEAR     66  60  80 S3        29.89S
CUMBERLAND     CLEAR     63  59  88 CALM      29.91S
RICE LAKE      CLEAR     66  60  80 CALM      29.92R
CHETEK           N/A     67  63  85 CALM      29.91R
LADYSMITH      CLEAR     68  61  79 S5        29.93R
EAU CLAIRE     NOT AVBL
MENOMONIE      CLEAR     68  64  85 SE3       29.91R
NEW RICHMOND   CLEAR     69  61  76 SE3       29.90S
OSCEOLA        CLEAR     68  61  78 SE5       29.92R
$$

WIZ003>005-009-010-017-018-200300-
NORTH CENTRAL WISCONSIN

CITY           SKY/WX    TMP DP  RH WIND       PRES   REMARKS
MANITOWISH WTR CLEAR     62  62 100 CALM      29.92R
ARBOR VITAE    CLEAR     69  62  77 CALM      29.92S
WOODRUFF       CLEAR     69  62  77 CALM      29.92S
RHINELANDER    CLEAR     63  61  93 CALM      29.94S
EAGLE RIVER    CLEAR     62  60  94 CALM      29.92S
LAND O LAKES   PTCLDY    62  60  93 CALM      29.93S
PHILLIPS       CLEAR     66  62  85 SW3       29.92R
TOMAHAWK         N/A     62  59  89 CALM      29.94R
MEDFORD        CLEAR     64  58  82 S3        29.94R
MERRILL        NOT AVBL
$$

WIZ029-030-035-036-043>047-200300-
CENTRAL WISCONSIN

CITY           SKY/WX    TMP DP  RH WIND       PRES   REMARKS
WAUSAU         CLEAR     68  60  75 CALM      29.93R
MOSINEE        NOT AVBL
MARSHFIELD     CLEAR     66  61  84 SW5       29.94R
STEVENS POINT  CLEAR     64  60  85 CALM      29.95R
WAUPACA        CLEAR     70  62  75 CALM      29.93S
WAUTOMA        CLEAR     65  62  90 CALM      29.95R
WISC RAPIDS    CLEAR     64  61  90 CALM      29.95R
CAMP DOUGLAS   CLEAR     61  60  96 CALM      29.94R
$$

WIZ011>013-019>022-031-037>040-048>050-200300-
NORTHEAST WISCONSIN

CITY           SKY/WX    TMP DP  RH WIND       PRES   REMARKS
ANTIGO         CLEAR     64  58  81 SW3       29.95R
SHAWANO        CLEAR     71  61  72 CALM      29.92R
OCONTO         CLEAR     66  62  86 CALM      29.90R
STURGEON BAY   CLEAR     70  62  76 SW6       29.92R
GREEN BAY      CLEAR     66  64  93 SW3       29.92R
MANITOWOC      NOT AVBL
APPLETON       CLEAR     72  55  56 SW7       29.93R
CLINTONVILLE   CLEAR     70  59  68 CALM      29.92R
OSHKOSH        CLEAR     70  61  73 S3        29.94R
$$

WIZ032>034-041-042-053>061-200300-
SOUTHWEST WISCONSIN

CITY           SKY/WX    TMP DP  RH WIND       PRES   REMARKS
LA CROSSE      CLEAR     72  63  73 SE3       29.92R
SPARTA         CLEAR     64  62  93 CALM      29.95R
VIROQUA        CLEAR     71  59  66 CALM      29.96R
BOSCOBEL       CLEAR     67  64  90 CALM      29.95R
PRAIRIE DU CHI CLEAR     68  61  77 E5        29.93R
PLATTEVILLE    CLEAR     69  64  83 S6        29.96S
$$

WIZ056-057-062-063-064-067-068-200300-
SOUTH CENTRAL WISCONSIN

CITY           SKY/WX    TMP DP  RH WIND       PRES   REMARKS
REEDSBURG      CLEAR     68  62  81 CALM      29.94R
BARABOO/DELLS  CLEAR     67  61  81 CALM      29.95R
LONE ROCK      NOT AVBL
MINERAL POINT  CLEAR     72  59  64 S3        29.97R
MADISON        CLEAR     71  62  73 CALM      29.95R
MIDDLETON      CLEAR     68  64  87 CALM      29.96R
WATERTOWN      CLEAR     68  65  89 CALM      29.95S
MONROE         CLEAR     72  61  68 S5        29.97R
JANESVILLE     CLEAR     72  64  78 CALM      29.96R
$$

WIZ051-052-058>065-066-070>072-200300-
SOUTHEAST WISCONSIN

CITY           SKY/WX    TMP DP  RH WIND       PRES   REMARKS
MILWAUKEE      CLEAR     75  61  61 SW5       29.96R
WAUKESHA       CLEAR     68  59  73 SW5       29.98R
MILWAUKEE/TIMM CLEAR     72  63  73 CALM      29.97R
RACINE         CLEAR     68  62  81 S3        29.98R
KENOSHA        CLEAR     69  60  73 S6        29.97R
FOND DU LAC    CLEAR     69  62  78 S5        29.95R
SHEBOYGAN      CLEAR     67  64  90 S3        29.95R
WEST BEND      CLEAR     66  63  88 CALM      29.96R
JUNEAU         CLEAR     69  62  78 CALM      29.97R
$$

LSZ147-162-200300-
LAKE SUPERIOR

STATION/POSITION TIME  TEMP    WIND        PRES    WAVE
                       AIR SEA DIR/SP/G            HT/PER
                 (UTC) (F)     (DEG/KT/KT) (MB)    (FT/S)
W MID LAKE BUOY  0050   65 60  210/  8/ 10 1009.7F   1/ 4
DEVILS ISLAND    0100   74     210/  8/  8 1010.1R
SAXON HARBOR     0140   68     190/  3/  4 1010.8R
$$

LMZ867-665-643>646-200300-
LAKE MICHIGAN

STATION/POSITION TIME  TEMP    WIND        PRES    WAVE
                       AIR SEA DIR/SP/G            HT/PER
                 (UTC) (F)     (DEG/KT/KT) (MB)    (FT/S)
S GREEN BAY BUOY 0130   73 72  230/  6/  8 1012.3R
N MID LAKE BUOY  0050   69 67  200/ 14/ 17 1011.4S   2/ 4
NORTHPORT PIER   0140   72     210/  3/  6 1011.9R
KEWAUNEE LAKESHO 0130   72     300/  2/  2 1012.1R
SHEBOYGAN LAKESH 0100   72     200/  9/  9 1013.0R
PORT WASHINGTON  0130   73     270/  3/  4 1014.9R
ATWATER BUOY     0009   72 71  160/  4/  6 1013.9R
MILWAUKEE LAKESH 0130   77     220/  7/  7   N/A
S MID LAKE BUOY  0050   72 72  170/ 10/ 10 1014.1S   1
KENOSHA   LAKESH 0100   72     190/  6/  9 1013.9
$$

TC  - TEMPERATURE IN CELSIUS
VSB - VISIBILITY IN STATUTE MILES
WCI - WIND CHILL INDEX
HX  - HEAT INDEX





USA.gov is the U.S. government's official web portal to all federal, state and local government web resources and services.